FW2736 Weather Reports


Display with metric or nautical units.
time (UTC)temp
F
wind
direction
speed
MPH
gust
MPH
rain 1hr
in
rain 24hr
in
rain mn
in
humidity
%
barometer
mb
20260507165839 78 311 4.0 0.0 0.00 0.00 0.00 47 1017.9
20260507165323 78 79 4.0 0.0 0.00 0.00 0.00 47 1017.9
20260507164838 77 122 4.0 0.0 0.00 0.00 0.00 47 1017.9
20260507164339 77 321 4.0 0.0 0.00 0.00 0.00 47 1017.9
20260507163836 77 106 3.0 0.0 0.00 0.00 0.00 47 1017.9
20260507163337 76 251 4.0 0.0 0.00 0.00 0.00 49 1018.3
20260507162838 75 288 4.0 0.0 0.00 0.00 0.00 51 1018.3
20260507162338 74 71 4.0 0.0 0.00 0.00 0.00 51 1018.3
20260507161837 74 66 4.0 0.0 0.00 0.00 0.00 52 1018.3
20260507161338 73 134 4.0 0.0 0.00 0.00 0.00 52 1018.3
20260507160841 72 117 3.0 0.0 0.00 0.00 0.00 54 1018.3
20260507160338 72 119 5.0 0.0 0.00 0.00 0.00 55 1018.3
20260507155841 71 215 5.0 0.0 0.00 0.00 0.00 57 1018.3
20260507155340 70 46 5.0 0.0 0.00 0.00 0.00 57 1018.3
20260507154841 71 299 4.0 0.0 0.00 0.00 0.00 57 1018.3
20260507154340 71 354 0.0 0.0 0.00 0.00 0.00 56 1018.3
20260507153822 70 38 0.0 0.0 0.00 0.00 0.00 57 1018.3
20260507153342 69 138 0.0 0.0 0.00 0.00 0.00 59 1018.3
20260507152841 69 186 0.0 0.0 0.00 0.00 0.00 60 1018.3
20260507152342 68 13 0.0 0.0 0.00 0.00 0.00 60 1018.3
20260507151837 68 152 0.0 0.0 0.00 0.00 0.00 62 1018.3
20260507151340 67 102 0.0 0.0 0.00 0.00 0.00 63 1018.3
20260507150841 67 109 0.0 0.0 0.00 0.00 0.00 64 1018.3
20260507150336 65 349 0.0 0.0 0.00 0.00 0.00 65 1018.3
20260507145843 65 50 0.0 0.0 0.00 0.00 0.00 65 1018.3
20260507145341 65 68 0.0 0.0 0.00 0.00 0.00 67 1018.3
20260507144841 64 157 0.0 0.0 0.00 0.00 0.00 68 1018.3
20260507144318 63 53 0.0 0.0 0.00 0.00 0.00 70 1018.3
20260507143837 62 74 0.0 0.0 0.00 0.00 0.00 73 1018.3
20260507143342 62 41 0.0 0.0 0.00 0.00 0.00 73 1018.3
20260507142838 61 354 0.0 0.0 0.00 0.00 0.00 75 1018.3
20260507142336 60 348 0.0 0.0 0.00 0.00 0.00 76 1018.3
20260507141837 59 311 0.0 0.0 0.00 0.00 0.00 78 1018.3
20260507141337 59 331 0.0 0.0 0.00 0.00 0.00 79 1018.3
20260507140841 58 51 0.0 0.0 0.00 0.00 0.00 81 1018.3
20260507140338 57 350 0.0 0.0 0.00 0.00 0.00 82 1018.3
20260507135841 57 315 0.0 0.0 0.00 0.00 0.00 84 1018.3
20260507135341 57 342 0.0 0.0 0.00 0.00 0.00 87 1018.3
20260507134819 56 356 0.0 0.0 0.00 0.00 0.00 88 1018.3
20260507134343 55 334 0.0 0.0 0.00 0.00 0.00 89 1018.3
20260507133842 53 309 0.0 0.0 0.00 0.00 0.00 90 1018.3
20260507133341 52 152 0.0 0.0 0.00 0.00 0.00 89 1018.3
20260507132837 51 294 0.0 0.0 0.00 0.00 0.00 89 1017.9
20260507132337 50 294 0.0 0.0 0.00 0.00 0.00 89 1018.3
20260507131838 50 288 0.0 0.0 0.00 0.00 0.00 89 1017.9
20260507131337 50 232 0.0 0.0 0.00 0.00 0.00 89 1017.9
20260507130841 50 278 0.0 0.0 0.00 0.00 0.00 89 1017.9
20260507130336 50 293 0.0 0.0 0.00 0.00 0.00 89 1017.9
20260507125839 50 288 0.0 0.0 0.00 0.00 0.00 89 1017.6
20260507125315 50 270 0.0 0.0 0.00 0.00 0.00 88 1017.6
20260507124842 50 284 0.0 0.0 0.00 0.00 0.00 88 1017.6
20260507124342 50 296 0.0 0.0 0.00 0.00 0.00 88 1017.6
20260507123837 50 290 0.0 0.0 0.00 0.00 0.00 87 1017.6
20260507123314 51 190 0.0 0.0 0.00 0.00 0.00 87 1017.6
20260507122838 51 295 0.0 0.0 0.00 0.00 0.00 87 1017.6
20260507122342 51 303 0.0 0.0 0.00 0.00 0.00 87 1017.6
20260507121841 52 298 0.0 0.0 0.00 0.00 0.00 88 1017.6
20260507121335 52 325 0.0 0.0 0.00 0.00 0.00 88 1017.6
20260507120840 52 291 0.0 0.0 0.00 0.00 0.00 88 1017.6
20260507120335 52 304 0.0 0.0 0.00 0.00 0.00 88 1017.6
20260507115813 52 301 0.0 0.0 0.00 0.00 0.00 88 1017.6
20260507115338 52 282 0.0 0.0 0.00 0.00 0.00 88 1017.9
20260507114842 52 285 0.0 0.0 0.00 0.00 0.00 88 1017.9
20260507114341 52 224 0.0 0.0 0.00 0.00 0.00 88 1017.9
20260507113840 52 171 0.0 0.0 0.00 0.00 0.00 88 1017.9
20260507113344 52 200 0.0 0.0 0.00 0.00 0.00 87 1017.9
20260507112838 52 201 0.0 0.0 0.00 0.00 0.00 86 1017.9
20260507112343 52 175 0.0 0.0 0.00 0.00 0.00 86 1018.3
20260507111840 52 207 0.0 0.0 0.00 0.00 0.00 86 1018.3
20260507111344 52 305 0.0 0.0 0.00 0.00 0.00 86 1017.9
20260507110837 52 247 0.0 0.0 0.00 0.00 0.00 86 1018.3
20260507110341 52 188 0.0 0.0 0.00 0.00 0.00 86 1018.3
20260507105841 52 273 0.0 0.0 0.00 0.00 0.00 86 1018.3
20260507105339 52 311 0.0 0.0 0.00 0.00 0.00 86 1018.3
20260507104837 52 265 0.0 0.0 0.00 0.00 0.00 84 1018.3
20260507104336 52 296 0.0 0.0 0.00 0.00 0.00 84 1018.3
20260507103836 52 279 0.0 0.0 0.00 0.00 0.00 84 1018.3
20260507103340 52 286 0.0 0.0 0.00 0.00 0.00 84 1018.3
20260507102839 53 282 0.0 0.0 0.00 0.00 0.00 83 1018.3
20260507102337 53 301 0.0 0.0 0.00 0.00 0.00 83 1018.3
20260507101835 53 211 0.0 0.0 0.00 0.00 0.00 83 1018.3
20260507101335 53 296 0.0 0.0 0.00 0.00 0.00 83 1018.3
20260507100841 54 231 0.0 0.0 0.00 0.00 0.00 83 1018.3
20260507100341 54 295 0.0 0.0 0.00 0.00 0.00 84 1018.3
20260507095840 54 307 0.0 0.0 0.00 0.00 0.00 83 1018.3
20260507095337 54 257 0.0 0.0 0.00 0.00 0.00 83 1018.6
20260507094837 54 295 0.0 0.0 0.00 0.00 0.00 83 1018.6
20260507094342 54 272 0.0 0.0 0.00 0.00 0.00 83 1018.6
20260507093840 54 300 0.0 0.0 0.00 0.00 0.00 83 1018.6
20260507093336 53 283 0.0 0.0 0.00 0.00 0.00 82 1018.6
20260507092839 54 322 0.0 0.0 0.00 0.00 0.00 82 1018.6
20260507092337 54 289 0.0 0.0 0.00 0.00 0.00 82 1018.6
20260507091840 54 316 0.0 0.0 0.00 0.00 0.00 81 1018.6
20260507091314 54 299 0.0 0.0 0.00 0.00 0.00 81 1018.6
20260507090838 55 326 0.0 0.0 0.00 0.00 0.00 80 1018.6
20260507090338 55 302 0.0 0.0 0.00 0.00 0.00 79 1018.6
20260507085838 55 338 0.0 0.0 0.00 0.00 0.00 78 1019.0
20260507085341 56 310 0.0 0.0 0.00 0.00 0.00 78 1019.0
20260507084836 56 284 0.0 0.0 0.00 0.00 0.00 77 1019.0
20260507084315 57 301 0.0 0.0 0.00 0.00 0.00 76 1019.0
20260507083841 58 308 0.0 0.0 0.00 0.00 0.00 75 1019.0
20260507083340 58 270 0.0 0.0 0.00 0.00 0.00 76 1019.0
20260507082813 58 276 0.0 0.0 0.00 0.00 0.00 77 1019.0
20260507082336 58 253 0.0 0.0 0.00 0.00 0.00 77 1019.0
20260507081840 57 256 0.0 0.0 0.00 0.00 0.00 78 1019.3
20260507081338 57 271 0.0 0.0 0.00 0.00 0.00 78 1019.0
20260507080838 57 254 3.0 0.0 0.00 0.00 0.00 79 1019.3
20260507080340 56 263 0.0 0.0 0.00 0.00 0.00 81 1019.0
20260507075816 56 273 0.0 0.0 0.00 0.00 0.00 80 1019.0
20260507075338 56 310 0.0 0.0 0.00 0.00 0.00 78 1019.0
20260507074839 56 303 0.0 0.0 0.00 0.00 0.00 78 1019.0
20260507074313 56 313 0.0 0.0 0.00 0.00 0.00 78 1019.0
20260507073841 56 275 0.0 0.0 0.00 0.00 0.00 79 1019.0
20260507073314 57 287 0.0 0.0 0.00 0.00 0.00 78 1019.0
20260507072842 56 264 0.0 0.0 0.00 0.00 0.00 78 1019.3
20260507072338 56 298 0.0 0.0 0.00 0.00 0.00 77 1019.3
20260507071837 57 290 0.0 0.0 0.00 0.00 0.00 76 1019.3
20260507071338 57 274 0.0 0.0 0.00 0.00 0.00 76 1019.3
20260507070814 57 303 0.0 0.0 0.00 0.00 0.00 75 1019.3
20260507070337 58 205 0.0 0.0 0.00 0.00 0.00 75 1019.3
20260507065838 58 293 0.0 0.0 0.00 0.00 0.00 76 1019.3
20260507065341 58 259 0.0 0.0 0.00 0.00 0.00 74 1019.3
20260507064838 58 282 0.0 0.0 0.00 0.00 0.00 74 1019.3
20260507064336 58 298 0.0 0.0 0.00 0.00 0.00 74 1019.3
20260507063813 59 289 0.0 0.0 0.00 0.00 0.00 74 1019.3
20260507063343 59 322 0.0 0.0 0.00 0.00 0.00 73 1019.3
20260507062815 59 314 5.0 0.0 0.00 0.00 0.00 73 1019.3
20260507062337 59 295 6.0 0.0 0.00 0.00 0.00 74 1019.3
20260507061841 59 308 6.0 0.0 0.00 0.00 0.00 72 1019.3
20260507061340 59 298 1.0 0.0 0.00 0.00 0.00 70 1019.3
20260507060813 60 297 1.0 0.0 0.00 0.00 0.00 70 1019.3
20260507060340 60 298 3.0 0.0 0.00 0.00 0.00 71 1019.3
20260507055839 60 305 0.0 0.0 0.00 0.00 0.00 71 1019.3
20260507055342 60 303 0.0 0.0 0.00 0.00 0.00 72 1019.3
20260507054814 60 312 0.0 0.0 0.00 0.00 0.00 72 1019.3
20260507054314 60 297 0.0 0.0 0.00 0.00 0.00 72 1019.3
20260507053810 60 280 0.0 0.0 0.00 0.00 0.00 71 1019.3
20260507053339 60 298 0.0 0.0 0.00 0.00 0.00 71 1019.3
20260507052837 60 282 0.0 0.0 0.00 0.00 0.00 70 1019.3
20260507052337 60 300 1.0 0.0 0.00 0.00 0.00 69 1019.3
20260507051835 61 315 1.0 0.0 0.00 0.00 0.00 70 1019.3
20260507051313 61 213 0.0 0.0 0.00 0.00 0.00 70 1019.3
20260507050814 61 206 0.0 0.0 0.00 0.00 0.00 68 1019.3
20260507050337 61 265 0.0 0.0 0.00 0.00 0.00 68 1019.0
20260507045838 61 292 0.0 0.0 0.00 0.00 0.00 67 1019.3
20260507045329 62 280 0.0 0.0 0.00 0.00 0.00 66 1019.3
20260507044830 62 319 0.0 0.0 0.00 0.00 0.00 65 1019.3
20260507044331 63 282 4.0 0.0 0.00 0.00 0.00 64 1019.3
20260507043829 63 276 4.0 0.0 0.00 0.00 0.00 65 1019.3
20260507043330 63 275 3.0 0.0 0.00 0.00 0.00 65 1019.0
20260507042828 63 238 4.0 0.0 0.00 0.00 0.00 65 1019.0
20260507042328 63 219 4.0 0.0 0.00 0.00 0.00 65 1019.0
20260507041829 63 266 3.0 0.0 0.00 0.00 0.00 65 1019.0
20260507041331 63 230 3.0 0.0 0.00 0.00 0.00 65 1019.0
20260507040828 64 208 4.0 0.0 0.00 0.00 0.00 65 1019.0
20260507040327 64 222 5.0 0.0 0.00 0.00 0.00 65 1019.0
20260507035827 64 248 4.0 0.0 0.00 0.00 0.00 63 1018.6
20260507035328 64 188 5.0 0.0 0.00 0.00 0.00 63 1018.6
20260507034828 65 167 6.0 0.0 0.00 0.00 0.00 63 1018.6
20260507034328 65 154 4.0 0.0 0.00 0.00 0.00 62 1018.6
20260507033827 66 154 0.0 0.0 0.00 0.00 0.00 61 1018.3
20260507033327 66 301 1.0 0.0 0.00 0.00 0.00 60 1018.3
20260507032828 66 251 0.0 0.0 0.00 0.00 0.00 60 1018.3
20260507032327 66 273 3.0 0.0 0.00 0.00 0.00 60 1018.3
20260507031826 66 252 4.0 0.0 0.00 0.00 0.00 60 1018.3
20260507031327 67 213 8.0 0.0 0.00 0.00 0.00 60 1018.3
20260507030827 67 188 8.0 0.0 0.00 0.00 0.00 59 1017.9
20260507030328 68 119 6.0 0.0 0.00 0.00 0.00 57 1017.9
20260507025826 68 118 0.0 0.0 0.00 0.00 0.00 57 1017.6
20260507025324 68 74 0.0 0.0 0.00 0.00 0.00 57 1017.6
20260507024825 69 304 0.0 0.0 0.00 0.00 0.00 56 1017.6
20260507024327 69 39 0.0 0.0 0.00 0.00 0.00 57 1017.6
20260507023827 69 47 4.0 0.0 0.00 0.00 0.00 57 1017.6
20260507023325 69 353 6.0 0.0 0.00 0.00 0.00 56 1017.3
20260507022826 69 341 6.0 0.0 0.00 0.00 0.00 56 1017.3
20260507022326 70 3 8.0 0.0 0.00 0.00 0.00 56 1017.3
20260507021824 70 133 10.0 0.0 0.00 0.00 0.00 55 1017.3
20260507021325 70 157 10.0 0.0 0.00 0.00 0.00 55 1017.3
20260507020825 71 132 8.0 0.0 0.00 0.00 0.00 54 1017.3
20260507020323 71 274 9.0 0.0 0.00 0.00 0.00 54 1017.3
20260507015823 71 22 9.0 0.0 0.00 0.00 0.00 53 1016.9
20260507015329 72 23 10.0 0.0 0.00 0.00 0.00 52 1016.9
20260507014825 73 51 7.0 0.0 0.00 0.00 0.00 50 1016.9
20260507014323 74 308 7.0 0.0 0.00 0.00 0.00 47 1016.9
20260507013824 75 256 6.0 0.0 0.00 0.00 0.00 41 1016.9
20260507013325 75 301 6.0 0.0 0.00 0.00 0.00 40 1016.9
20260507012823 75 330 7.0 0.0 0.00 0.00 0.00 40 1016.9
20260507012321 76 329 8.0 0.0 0.00 0.00 0.00 39 1016.6
20260507011822 77 297 8.0 0.0 0.00 0.00 0.00 38 1016.6
20260507011324 77 332 8.0 0.0 0.00 0.00 0.00 37 1016.6
20260507010821 78 344 6.0 0.0 0.00 0.00 0.00 36 1016.6
20260507010321 79 322 10.0 0.0 0.00 0.00 0.00 36 1016.6
20260507005821 79 325 6.0 0.0 0.00 0.00 0.00 35 1016.6
20260507005322 79 331 8.0 0.0 0.00 0.00 0.00 35 1016.6
20260507004821 79 304 8.0 0.0 0.00 0.00 0.00 35 1016.6
20260507004322 79 300 9.0 0.0 0.00 0.00 0.00 35 1016.6
20260507003823 79 307 10.0 0.0 0.00 0.00 0.00 34 1016.6
20260507003321 80 292 9.0 0.0 0.00 0.00 0.00 33 1016.3
20260507002821 80 280 9.0 0.0 0.00 0.00 0.00 33 1016.3
20260507002320 80 342 10.0 0.0 0.00 0.00 0.00 33 1016.3
20260507001820 81 3 10.0 0.0 0.00 0.00 0.00 33 1016.3
20260507001318 81 333 8.0 0.0 0.00 0.00 0.00 32 1016.3
20260507000819 81 338 8.0 0.0 0.00 0.00 0.00 32 1016.3
20260507000321 81 304 9.0 0.0 0.00 0.00 0.00 32 1016.3
20260506235819 81 328 6.0 0.0 0.00 0.00 0.00 31 1016.3
20260506235321 81 340 10.0 0.0 0.00 0.00 0.00 32 1016.3
20260506234819 81 187 11.0 0.0 0.00 0.00 0.00 31 1016.3
20260506234319 81 278 8.0 0.0 0.00 0.00 0.00 30 1016.3
20260506233818 81 305 9.0 0.0 0.00 0.00 0.00 30 1016.3
20260506233319 82 294 9.0 0.0 0.00 0.00 0.00 30 1016.3
20260506232821 81 275 9.0 0.0 0.00 0.00 0.00 31 1016.3
20260506232319 81 315 11.0 0.0 0.00 0.00 0.00 31 1016.3
20260506231818 81 299 8.0 0.0 0.00 0.00 0.00 31 1016.3
20260506231317 81 21 10.0 0.0 0.00 0.00 0.00 30 1016.3
20260506230817 82 324 11.0 0.0 0.00 0.00 0.00 30 1016.3
20260506230317 82 336 8.0 0.0 0.00 0.00 0.00 31 1016.3
20260506225817 82 325 10.0 0.0 0.00 0.00 0.00 30 1016.3
20260506225318 82 37 12.0 0.0 0.00 0.00 0.00 31 1016.3
20260506224816 82 262 8.0 0.0 0.00 0.00 0.00 30 1016.3
20260506224316 82 314 9.0 0.0 0.00 0.00 0.00 30 1016.3
20260506223816 82 321 10.0 0.0 0.00 0.00 0.00 30 1016.6
20260506223321 82 320 12.0 0.0 0.00 0.00 0.00 30 1016.6
20260506222816 82 306 11.0 0.0 0.00 0.00 0.00 30 1016.6
20260506222316 82 7 11.0 0.0 0.00 0.00 0.00 30 1016.6
20260506221816 82 340 8.0 0.0 0.00 0.00 0.00 30 1016.6
20260506221315 81 337 5.0 0.0 0.00 0.00 0.00 31 1016.6
20260506220815 80 150 9.0 0.0 0.00 0.00 0.00 32 1016.6
20260506220315 80 149 9.0 0.0 0.00 0.00 0.00 33 1016.9
20260506215815 79 97 8.0 0.0 0.00 0.00 0.00 33 1016.9
20260506215316 80 103 7.0 0.0 0.00 0.00 0.00 33 1016.9
20260506214818 79 134 7.0 0.0 0.00 0.00 0.00 33 1017.3
20260506214315 80 138 7.0 0.0 0.00 0.00 0.00 33 1017.3
20260506213815 80 153 8.0 0.0 0.00 0.00 0.00 33 1017.3
20260506213314 80 158 8.0 0.0 0.00 0.00 0.00 34 1017.3
20260506212814 79 212 7.0 0.0 0.00 0.00 0.00 34 1017.3
20260506212315 79 117 7.0 0.0 0.00 0.00 0.00 33 1017.3
20260506211815 79 145 10.0 0.0 0.00 0.00 0.00 34 1017.3
20260506211314 80 109 11.0 0.0 0.00 0.00 0.00 33 1017.6
20260506210816 78 21 11.0 0.0 0.00 0.00 0.00 35 1017.6
20260506210313 79 122 6.0 0.0 0.00 0.00 0.00 34 1017.6
20260506205812 79 100 6.0 0.0 0.00 0.00 0.00 34 1017.6
20260506205313 78 112 8.0 0.0 0.00 0.00 0.00 35 1017.6
20260506204812 78 117 8.0 0.0 0.00 0.00 0.00 36 1017.6
20260506204317 77 159 9.0 0.0 0.00 0.00 0.00 36 1017.9
20260506203812 77 153 9.0 0.0 0.00 0.00 0.00 36 1017.9
20260506203314 78 42 7.0 0.0 0.00 0.00 0.00 35 1018.3
20260506202812 78 356 6.0 0.0 0.00 0.00 0.00 34 1018.3
20260506202312 77 147 7.0 0.0 0.00 0.00 0.00 36 1018.3
20260506201811 76 339 7.0 0.0 0.00 0.00 0.00 37 1018.3
20260506201314 77 84 7.0 0.0 0.00 0.00 0.00 36 1018.3
20260506200814 77 255 7.0 0.0 0.00 0.00 0.00 37 1018.3
20260506200314 76 20 12.0 0.0 0.00 0.00 0.00 37 1018.6
20260506195811 76 259 9.0 0.0 0.00 0.00 0.00 37 1018.6
20260506195312 75 40 8.0 0.0 0.00 0.00 0.00 39 1018.6
20260506194820 75 135 8.0 0.0 0.00 0.00 0.00 39 1018.6
20260506194313 76 36 6.0 0.0 0.00 0.00 0.00 40 1019.0
20260506193812 76 134 6.0 0.0 0.00 0.00 0.00 38 1019.0
20260506193310 77 112 6.0 0.0 0.00 0.00 0.00 38 1019.0
20260506192812 75 346 6.0 0.0 0.00 0.00 0.00 39 1019.0
20260506192313 75 59 7.0 0.0 0.00 0.00 0.00 40 1019.0
20260506191814 74 301 7.0 0.0 0.00 0.00 0.00 41 1019.3
20260506191314 74 19 6.0 0.0 0.00 0.00 0.00 41 1019.3
20260506190810 74 94 6.0 0.0 0.00 0.00 0.00 41 1019.3
20260506190309 73 107 6.0 0.0 0.00 0.00 0.00 43 1019.3
20260506185810 73 213 7.0 0.0 0.00 0.00 0.00 42 1019.3
20260506185311 74 133 5.0 0.0 0.00 0.00 0.00 41 1019.3
20260506184813 74 59 7.0 0.0 0.00 0.00 0.00 41 1019.3
20260506184313 74 352 7.0 0.0 0.00 0.00 0.00 42 1019.6
20260506183811 73 347 6.0 0.0 0.00 0.00 0.00 43 1019.6
20260506183313 72 132 1.0 0.0 0.00 0.00 0.00 43 1019.6
20260506182810 72 186 7.0 0.0 0.00 0.00 0.00 43 1019.6
20260506182310 72 76 7.0 0.0 0.00 0.00 0.00 43 1020.0
20260506181811 71 79 6.0 0.0 0.00 0.00 0.00 44 1020.0
20260506181312 71 66 6.0 0.0 0.00 0.00 0.00 44 1020.0
20260506180813 71 15 4.0 0.0 0.00 0.00 0.00 45 1020.0
20260506180310 70 130 6.0 0.0 0.00 0.00 0.00 47 1020.3
20260506175812 69 73 7.0 0.0 0.00 0.00 0.00 47 1020.3
20260506175309 69 96 7.0 0.0 0.00 0.00 0.00 48 1020.3
20260506174815 69 113 6.0 0.0 0.00 0.00 0.00 47 1020.3
20260506174312 69 16 6.0 0.0 0.00 0.00 0.00 47 1020.3
20260506173813 68 36 5.0 0.0 0.00 0.00 0.00 47 1020.3
20260506173314 68 118 5.0 0.0 0.00 0.00 0.00 48 1020.3
20260506172812 68 326 0.0 0.0 0.00 0.00 0.00 47 1020.3
20260506172325 68 340 0.0 0.0 0.00 0.00 0.00 47 1020.3
20260506171823 67 297 0.0 0.0 0.00 0.00 0.00 48 1020.3
20260506171322 67 355 0.0 0.0 0.00 0.00 0.00 46 1020.3
20260506170822 67 274 0.0 0.0 0.00 0.00 0.00 47 1020.3
20260506170321 67 36 5.0 0.0 0.00 0.00 0.00 47 1020.3